{"data":{"norad_id":85047,"epoch":"2026-09-17T00:33:25.355232Z","epoch_age_seconds":318735,"freshness":"STALE","line1":"1 85047U          26260.02321013  .00009472  00000+0  14127-1 0  9999","line2":"2 85047 102.1706 289.9692 0128715 119.9081 241.4900 13.50390754614144","mean_motion":13.50390754,"eccentricity":0.0128715,"inclination_deg":102.1706,"raan_deg":289.9692,"arg_perigee_deg":119.9081,"mean_anomaly_deg":241.49,"bstar":0.014127,"rev_number":61414,"period_min":106.63580121047,"perigee_km":974.94193932789,"apogee_km":1166.7004703956,"semimajor_km":7448.9582048618,"source":"CELESTRAK","updated_at":"2026-09-20T09:00:32.445766Z"}}